Year,Month,Day,Hour,Minute,Value (Times are PST for temperature in C)
2015,04,01,00,00,4.50
2015,04,01,00,01,4.40
2015,04,01,00,02,4.40
2015,04,01,00,03,4.40
2015,04,01,00,04,4.40
2015,04,01,00,05,4.40
2015,04,01,00,06,4.40
2015,04,01,00,07,4.30
2015,04,01,00,08,4.30
2015,04,01,00,09,4.30
2015,04,01,00,10,4.30
2015,04,01,00,11,4.30
2015,04,01,00,12,4.20
2015,04,01,00,13,4.20
2015,04,01,00,14,4.20
2015,04,01,00,15,4.20
2015,04,01,00,16,4.10
2015,04,01,00,17,4.10
2015,04,01,00,18,4.10
2015,04,01,00,19,4.10
2015,04,01,00,20,4.10
2015,04,01,00,21,4.10
2015,04,01,00,22,4.00
2015,04,01,00,23,4.00
2015,04,01,00,24,4.00
2015,04,01,00,25,4.00
2015,04,01,00,26,4.00
2015,04,01,00,27,4.00
2015,04,01,00,28,4.00
2015,04,01,00,29,4.00
2015,04,01,00,30,3.90
2015,04,01,00,31,3.90
2015,04,01,00,32,3.90
2015,04,01,00,33,3.90
2015,04,01,00,34,3.90
2015,04,01,00,35,3.90
2015,04,01,00,36,3.90
2015,04,01,00,37,3.90
2015,04,01,00,38,3.80
2015,04,01,00,39,3.80
2015,04,01,00,40,3.80
2015,04,01,00,41,3.80
2015,04,01,00,42,3.80
2015,04,01,00,43,3.80
2015,04,01,00,44,3.80
2015,04,01,00,45,3.80
2015,04,01,00,46,3.80
2015,04,01,00,47,3.80
2015,04,01,00,48,3.90
2015,04,01,00,49,3.90
2015,04,01,00,50,3.90
2015,04,01,00,51,3.90
2015,04,01,00,52,4.00
2015,04,01,00,53,4.00
2015,04,01,00,54,4.00
2015,04,01,00,55,4.00
2015,04,01,00,56,3.90
2015,04,01,00,57,3.90
2015,04,01,00,58,3.90
2015,04,01,00,59,3.80
2015,04,01,01,00,3.90
2015,04,01,01,01,3.90
2015,04,01,01,02,3.90
2015,04,01,01,03,3.90
2015,04,01,01,04,3.80
2015,04,01,01,05,3.80
2015,04,01,01,06,3.80
2015,04,01,01,07,3.80
2015,04,01,01,08,3.80
2015,04,01,01,09,3.70
2015,04,01,01,10,3.70
2015,04,01,01,11,3.70
2015,04,01,01,12,3.70
2015,04,01,01,13,3.70
2015,04,01,01,14,3.70
2015,04,01,01,15,3.60
2015,04,01,01,16,3.60
2015,04,01,01,17,3.60
2015,04,01,01,18,3.60
2015,04,01,01,19,3.60
2015,04,01,01,20,3.60
2015,04,01,01,21,3.60
2015,04,01,01,22,3.70
2015,04,01,01,23,3.70
2015,04,01,01,24,3.60
2015,04,01,01,25,3.60
2015,04,01,01,26,3.60
2015,04,01,01,27,3.60
2015,04,01,01,28,3.50
2015,04,01,01,29,3.50
2015,04,01,01,30,3.50
2015,04,01,01,31,3.40
2015,04,01,01,32,3.40
2015,04,01,01,33,3.40
2015,04,01,01,34,3.40
2015,04,01,01,35,3.30
2015,04,01,01,36,3.30
2015,04,01,01,37,3.30
2015,04,01,01,38,3.30
2015,04,01,01,39,3.30
2015,04,01,01,40,3.20
2015,04,01,01,41,3.20
2015,04,01,01,42,3.20
2015,04,01,01,43,3.20
2015,04,01,01,44,3.20
2015,04,01,01,45,3.20
2015,04,01,01,46,3.20
2015,04,01,01,47,3.20
2015,04,01,01,48,3.10
2015,04,01,01,49,3.10
2015,04,01,01,50,3.10
2015,04,01,01,51,3.10
2015,04,01,01,52,3.00
2015,04,01,01,53,3.00
2015,04,01,01,54,3.00
2015,04,01,01,55,3.00
2015,04,01,01,56,3.00
2015,04,01,01,57,3.00
2015,04,01,01,58,3.00
2015,04,01,01,59,3.00
2015,04,01,02,00,3.00
2015,04,01,02,01,2.90
2015,04,01,02,02,2.90
2015,04,01,02,03,2.90
2015,04,01,02,04,2.90
2015,04,01,02,05,2.90
2015,04,01,02,06,2.90
2015,04,01,02,07,2.90
2015,04,01,02,08,2.80
2015,04,01,02,09,2.80
2015,04,01,02,10,2.80
2015,04,01,02,11,2.80
2015,04,01,02,12,2.80
2015,04,01,02,13,2.70
2015,04,01,02,14,2.70
2015,04,01,02,15,2.70
2015,04,01,02,16,2.70
2015,04,01,02,17,2.80
2015,04,01,02,18,2.80
2015,04,01,02,19,2.80
2015,04,01,02,20,2.80
2015,04,01,02,21,2.80
2015,04,01,02,22,2.80
2015,04,01,02,23,2.80
2015,04,01,02,24,2.80
2015,04,01,02,25,2.70
2015,04,01,02,26,2.70
2015,04,01,02,27,2.70
2015,04,01,02,28,2.70
2015,04,01,02,29,2.70
2015,04,01,02,30,2.70
2015,04,01,02,31,2.70
2015,04,01,02,32,2.70
2015,04,01,02,33,2.70
2015,04,01,02,34,2.70
2015,04,01,02,35,2.60
2015,04,01,02,36,2.60
2015,04,01,02,37,2.60
2015,04,01,02,38,2.60
2015,04,01,02,39,2.60
2015,04,01,02,40,2.60
2015,04,01,02,41,2.50
2015,04,01,02,42,2.50
2015,04,01,02,43,2.50
2015,04,01,02,44,2.50
2015,04,01,02,45,2.50
2015,04,01,02,46,2.50
2015,04,01,02,47,2.50
2015,04,01,02,48,2.50
2015,04,01,02,49,2.50
2015,04,01,02,50,2.50
2015,04,01,02,51,2.50
2015,04,01,02,52,2.50
2015,04,01,02,53,2.40
2015,04,01,02,54,2.40
2015,04,01,02,55,2.40
2015,04,01,02,56,2.40
2015,04,01,02,57,2.40
2015,04,01,02,58,2.40
2015,04,01,02,59,2.40
2015,04,01,03,00,2.30
2015,04,01,03,01,2.30
2015,04,01,03,02,2.30
2015,04,01,03,03,2.30
2015,04,01,03,04,2.40
2015,04,01,03,05,2.40
2015,04,01,03,06,2.40
2015,04,01,03,07,2.50
2015,04,01,03,08,2.50
2015,04,01,03,09,2.60
2015,04,01,03,10,2.60
2015,04,01,03,11,2.70
2015,04,01,03,12,2.70
2015,04,01,03,13,2.70
2015,04,01,03,14,2.70
2015,04,01,03,15,2.70
2015,04,01,03,16,2.70
2015,04,01,03,17,2.70
2015,04,01,03,18,2.70
2015,04,01,03,19,2.70
2015,04,01,03,20,2.70
2015,04,01,03,21,2.70
2015,04,01,03,22,2.70
2015,04,01,03,23,2.70
2015,04,01,03,24,2.70
2015,04,01,03,25,2.70
2015,04,01,03,26,2.70
2015,04,01,03,27,2.70
2015,04,01,03,28,2.70
2015,04,01,03,29,2.70
2015,04,01,03,30,2.70
2015,04,01,03,31,2.70
2015,04,01,03,32,2.70
2015,04,01,03,33,2.70
2015,04,01,03,34,2.70
2015,04,01,03,35,2.70
2015,04,01,03,36,2.70
2015,04,01,03,37,2.60
2015,04,01,03,38,2.60
2015,04,01,03,39,2.50
2015,04,01,03,40,2.50
2015,04,01,03,41,2.40
2015,04,01,03,42,2.40
2015,04,01,03,43,2.40
2015,04,01,03,44,2.30
2015,04,01,03,45,2.30
2015,04,01,03,46,2.30
2015,04,01,03,47,2.30
2015,04,01,03,48,2.30
2015,04,01,03,49,2.30
2015,04,01,03,50,2.30
2015,04,01,03,51,2.20
2015,04,01,03,52,2.20
2015,04,01,03,53,2.20
2015,04,01,03,54,2.20
2015,04,01,03,55,2.20
2015,04,01,03,56,2.20
2015,04,01,03,57,2.20
2015,04,01,03,58,2.20
2015,04,01,03,59,2.20
2015,04,01,04,00,2.20
2015,04,01,04,01,2.20
2015,04,01,04,02,2.20
2015,04,01,04,03,2.20
2015,04,01,04,04,2.20
2015,04,01,04,05,2.20
2015,04,01,04,06,2.20
2015,04,01,04,07,2.20
2015,04,01,04,08,2.20
2015,04,01,04,09,2.20
2015,04,01,04,10,2.20
2015,04,01,04,11,2.20
2015,04,01,04,12,2.20
2015,04,01,04,13,2.10
2015,04,01,04,14,2.10
2015,04,01,04,15,2.10
2015,04,01,04,16,2.10
2015,04,01,04,17,2.10
2015,04,01,04,18,2.10
2015,04,01,04,19,2.10
2015,04,01,04,20,2.10
2015,04,01,04,21,2.10
2015,04,01,04,22,2.10
2015,04,01,04,23,2.10
2015,04,01,04,24,2.20
2015,04,01,04,25,2.20
2015,04,01,04,26,2.20
2015,04,01,04,27,2.20
2015,04,01,04,28,2.20
2015,04,01,04,29,2.20
2015,04,01,04,30,2.20
2015,04,01,04,31,2.20
2015,04,01,04,32,2.20
2015,04,01,04,33,2.20
2015,04,01,04,34,2.20
2015,04,01,04,35,2.20
2015,04,01,04,36,2.20
2015,04,01,04,37,2.20
2015,04,01,04,38,2.20
2015,04,01,04,39,2.20
2015,04,01,04,40,2.20
2015,04,01,04,41,2.30
2015,04,01,04,42,2.30
2015,04,01,04,43,2.30
2015,04,01,04,44,2.30
2015,04,01,04,45,2.30
2015,04,01,04,46,2.40
2015,04,01,04,47,2.40
2015,04,01,04,48,2.40
2015,04,01,04,49,2.40
2015,04,01,04,50,2.40
2015,04,01,04,51,2.40
2015,04,01,04,52,2.40
2015,04,01,04,53,2.40
2015,04,01,04,54,2.40
2015,04,01,04,55,2.40
2015,04,01,04,56,2.40
2015,04,01,04,57,2.40
2015,04,01,04,58,2.40
2015,04,01,04,59,2.40
2015,04,01,05,00,2.40
2015,04,01,05,01,2.40
2015,04,01,05,02,2.40
2015,04,01,05,03,2.50
2015,04,01,05,04,2.50
2015,04,01,05,05,2.50
2015,04,01,05,06,2.50
2015,04,01,05,07,2.50
2015,04,01,05,08,2.50
2015,04,01,05,09,2.60
2015,04,01,05,10,2.60
2015,04,01,05,11,2.60
2015,04,01,05,12,2.60
2015,04,01,05,13,2.60
2015,04,01,05,14,2.60
2015,04,01,05,15,2.60
2015,04,01,05,16,2.60
2015,04,01,05,17,2.60
2015,04,01,05,18,2.60
2015,04,01,05,19,2.60
2015,04,01,05,20,2.60
2015,04,01,05,21,2.60
2015,04,01,05,22,2.60
2015,04,01,05,23,2.60
2015,04,01,05,24,2.50
2015,04,01,05,25,2.50
2015,04,01,05,26,2.50
2015,04,01,05,27,2.50
2015,04,01,05,28,2.40
2015,04,01,05,29,2.40
2015,04,01,05,30,2.40
2015,04,01,05,31,2.40
2015,04,01,05,32,2.40
2015,04,01,05,33,2.40
2015,04,01,05,34,2.40
2015,04,01,05,35,2.30
2015,04,01,05,36,2.30
2015,04,01,05,37,2.30
2015,04,01,05,38,2.30
2015,04,01,05,39,2.30
2015,04,01,05,40,2.30
2015,04,01,05,41,2.20
2015,04,01,05,42,2.20
2015,04,01,05,43,2.20
2015,04,01,05,44,2.20
2015,04,01,05,45,2.20
2015,04,01,05,46,2.20
2015,04,01,05,47,2.20
2015,04,01,05,48,2.10
2015,04,01,05,49,2.10
2015,04,01,05,50,2.10
2015,04,01,05,51,2.10
2015,04,01,05,52,2.10
2015,04,01,05,53,2.00
2015,04,01,05,54,2.00
2015,04,01,05,55,2.00
2015,04,01,05,56,2.00
2015,04,01,05,57,2.00
2015,04,01,05,58,2.00
2015,04,01,05,59,1.90
2015,04,01,06,00,1.90
2015,04,01,06,01,2.00
2015,04,01,06,02,2.00
2015,04,01,06,03,2.00
2015,04,01,06,04,2.00
2015,04,01,06,05,2.00
2015,04,01,06,06,2.00
2015,04,01,06,07,2.00
2015,04,01,06,08,2.00
2015,04,01,06,09,1.90
2015,04,01,06,10,1.90
2015,04,01,06,11,1.90
2015,04,01,06,12,1.90
2015,04,01,06,13,1.90
2015,04,01,06,14,1.90
2015,04,01,06,15,1.90
2015,04,01,06,16,1.80
2015,04,01,06,17,1.90
2015,04,01,06,18,1.90
2015,04,01,06,19,1.90
2015,04,01,06,20,1.90
2015,04,01,06,21,1.90
2015,04,01,06,22,1.90
2015,04,01,06,23,1.90
2015,04,01,06,24,1.90
2015,04,01,06,25,1.90
2015,04,01,06,26,1.90
2015,04,01,06,27,1.90
2015,04,01,06,28,1.90
2015,04,01,06,29,1.80
2015,04,01,06,30,1.80
2015,04,01,06,31,1.80
2015,04,01,06,32,1.70
2015,04,01,06,33,1.70
2015,04,01,06,34,1.70
2015,04,01,06,35,1.80
2015,04,01,06,36,1.80
2015,04,01,06,37,1.80
2015,04,01,06,38,1.80
2015,04,01,06,39,1.80
2015,04,01,06,40,1.90
2015,04,01,06,41,1.90
2015,04,01,06,42,2.00
2015,04,01,06,43,2.00
2015,04,01,06,44,2.10
2015,04,01,06,45,2.10
2015,04,01,06,46,2.10
2015,04,01,06,47,2.20
2015,04,01,06,48,2.20
2015,04,01,06,49,2.20
2015,04,01,06,50,2.20
2015,04,01,06,51,2.20
2015,04,01,06,52,2.20
2015,04,01,06,53,2.20
2015,04,01,06,54,2.20
2015,04,01,06,55,2.20
2015,04,01,06,56,2.20
2015,04,01,06,57,2.20
2015,04,01,06,58,2.20
2015,04,01,06,59,2.20
2015,04,01,07,00,2.20
2015,04,01,07,01,2.20
2015,04,01,07,02,2.20
2015,04,01,07,03,2.20
2015,04,01,07,04,2.20
2015,04,01,07,05,2.20
2015,04,01,07,06,2.20
2015,04,01,07,07,2.20
2015,04,01,07,08,2.20
2015,04,01,07,09,2.30
2015,04,01,07,10,2.30
2015,04,01,07,11,2.30
2015,04,01,07,12,2.30
2015,04,01,07,13,2.30
2015,04,01,07,14,2.30
2015,04,01,07,15,2.30
2015,04,01,07,16,2.30
2015,04,01,07,17,2.40
2015,04,01,07,18,2.40
2015,04,01,07,19,2.40
2015,04,01,07,20,2.40
2015,04,01,07,21,2.40
2015,04,01,07,22,2.50
2015,04,01,07,23,2.50
2015,04,01,07,24,2.50
2015,04,01,07,25,2.60
2015,04,01,07,26,2.60
2015,04,01,07,27,2.60
2015,04,01,07,28,2.60
2015,04,01,07,29,2.70
2015,04,01,07,30,2.70
2015,04,01,07,31,2.70
2015,04,01,07,32,2.80
2015,04,01,07,33,2.80
2015,04,01,07,34,2.90
2015,04,01,07,35,2.90
2015,04,01,07,36,3.00
2015,04,01,07,37,3.10
2015,04,01,07,38,3.10
2015,04,01,07,39,3.20
2015,04,01,07,40,3.20
2015,04,01,07,41,3.20
2015,04,01,07,42,3.30
2015,04,01,07,43,3.30
2015,04,01,07,44,3.30
2015,04,01,07,45,3.30
2015,04,01,07,46,3.40
2015,04,01,07,47,3.40
2015,04,01,07,48,3.40
2015,04,01,07,49,3.50
2015,04,01,07,50,3.50
2015,04,01,07,51,3.60
2015,04,01,07,52,3.60
2015,04,01,07,53,3.70
2015,04,01,07,54,3.80
2015,04,01,07,55,3.80
2015,04,01,07,56,3.90
2015,04,01,07,57,3.90
2015,04,01,07,58,3.90
2015,04,01,07,59,4.00
2015,04,01,08,00,4.00
2015,04,01,08,01,4.00
2015,04,01,08,02,4.10
2015,04,01,08,03,4.10
2015,04,01,08,04,4.20
2015,04,01,08,05,4.20
2015,04,01,08,06,4.20
2015,04,01,08,07,4.20
2015,04,01,08,08,4.30
2015,04,01,08,09,4.30
2015,04,01,08,10,4.40
2015,04,01,08,11,4.50
2015,04,01,08,12,4.50
2015,04,01,08,13,4.60
2015,04,01,08,14,4.60
2015,04,01,08,15,4.70
2015,04,01,08,16,4.70
2015,04,01,08,17,4.70
2015,04,01,08,18,4.80
2015,04,01,08,19,4.80
2015,04,01,08,20,4.80
2015,04,01,08,21,4.90
2015,04,01,08,22,4.90
2015,04,01,08,23,5.00
2015,04,01,08,24,5.00
2015,04,01,08,25,5.00
2015,04,01,08,26,5.10
2015,04,01,08,27,5.10
2015,04,01,08,28,5.10
2015,04,01,08,29,5.10
2015,04,01,08,30,5.10
2015,04,01,08,31,5.20
2015,04,01,08,32,5.20
2015,04,01,08,33,5.20
2015,04,01,08,34,5.20
2015,04,01,08,35,5.30
2015,04,01,08,36,5.30
2015,04,01,08,37,5.30
2015,04,01,08,38,5.40
2015,04,01,08,39,5.50
2015,04,01,08,40,5.60
2015,04,01,08,41,5.70
2015,04,01,08,42,5.80
2015,04,01,08,43,5.90
2015,04,01,08,44,6.00
2015,04,01,08,45,6.10
2015,04,01,08,46,6.30
2015,04,01,08,47,6.40
2015,04,01,08,48,6.50
2015,04,01,08,49,6.50
2015,04,01,08,50,6.60
2015,04,01,08,51,6.70
2015,04,01,08,52,6.80
2015,04,01,08,53,7.00
2015,04,01,08,54,7.00
2015,04,01,08,55,7.10
2015,04,01,08,56,7.20
2015,04,01,08,57,7.20
2015,04,01,08,58,7.30
2015,04,01,08,59,7.30
2015,04,01,09,00,7.40
2015,04,01,09,01,7.40
2015,04,01,09,02,7.40
2015,04,01,09,03,7.50
2015,04,01,09,04,7.60
2015,04,01,09,05,7.60
2015,04,01,09,06,7.70
2015,04,01,09,07,7.70
2015,04,01,09,08,7.80
2015,04,01,09,09,7.90
2015,04,01,09,10,8.00
2015,04,01,09,11,8.00
2015,04,01,09,12,8.10
2015,04,01,09,13,8.10
2015,04,01,09,14,8.10
2015,04,01,09,15,8.20
2015,04,01,09,16,8.20
2015,04,01,09,17,8.20
2015,04,01,09,18,8.20
2015,04,01,09,19,8.20
2015,04,01,09,20,8.20
2015,04,01,09,21,8.20
2015,04,01,09,22,8.20
2015,04,01,09,23,8.10
2015,04,01,09,24,8.10
2015,04,01,09,25,8.10
2015,04,01,09,26,8.10
2015,04,01,09,27,8.10
2015,04,01,09,28,8.10
2015,04,01,09,29,8.10
2015,04,01,09,30,8.00
2015,04,01,09,31,8.00
2015,04,01,09,32,8.00
2015,04,01,09,33,7.90
2015,04,01,09,34,7.90
2015,04,01,09,35,7.90
2015,04,01,09,36,7.90
2015,04,01,09,37,7.90
2015,04,01,09,38,7.90
2015,04,01,09,39,7.80
2015,04,01,09,40,7.80
2015,04,01,09,41,7.80
2015,04,01,09,42,7.90
2015,04,01,09,43,7.90
2015,04,01,09,44,7.80
2015,04,01,09,45,7.80
2015,04,01,09,46,7.80
2015,04,01,09,47,7.80
2015,04,01,09,48,7.80
2015,04,01,09,49,7.80
2015,04,01,09,50,7.80
2015,04,01,09,51,7.80
2015,04,01,09,52,7.80
2015,04,01,09,53,7.80
2015,04,01,09,54,7.80
2015,04,01,09,55,7.80
2015,04,01,09,56,7.80
2015,04,01,09,57,7.80
2015,04,01,09,58,7.80
2015,04,01,09,59,7.90
2015,04,01,10,00,7.90
2015,04,01,10,01,7.90
2015,04,01,10,02,7.90
2015,04,01,10,03,7.90
2015,04,01,10,04,7.90
2015,04,01,10,05,7.90
2015,04,01,10,06,7.90
2015,04,01,10,07,7.90
2015,04,01,10,08,7.90
2015,04,01,10,09,7.90
2015,04,01,10,10,7.90
2015,04,01,10,11,7.90
2015,04,01,10,12,7.90
2015,04,01,10,13,7.90
2015,04,01,10,14,8.00
2015,04,01,10,15,8.00
2015,04,01,10,16,8.10
2015,04,01,10,17,8.20
2015,04,01,10,18,8.20
2015,04,01,10,19,8.30
2015,04,01,10,20,8.30
2015,04,01,10,21,8.40
2015,04,01,10,22,8.40
2015,04,01,10,23,8.40
2015,04,01,10,24,8.40
2015,04,01,10,25,8.40
2015,04,01,10,26,8.40
2015,04,01,10,27,8.50
2015,04,01,10,28,8.50
2015,04,01,10,29,8.50
2015,04,01,10,30,8.50
2015,04,01,10,31,8.60
2015,04,01,10,32,8.60
2015,04,01,10,33,8.60
2015,04,01,10,34,8.70
2015,04,01,10,35,8.70
2015,04,01,10,36,8.70
2015,04,01,10,37,8.70
2015,04,01,10,38,8.60
2015,04,01,10,39,8.60
2015,04,01,10,40,8.60
2015,04,01,10,41,8.60
2015,04,01,10,42,8.60
2015,04,01,10,43,8.60
2015,04,01,10,44,8.70
2015,04,01,10,45,8.70
2015,04,01,10,46,8.80
2015,04,01,10,47,8.80
2015,04,01,10,48,8.90
2015,04,01,10,49,8.90
2015,04,01,10,50,9.00
2015,04,01,10,51,9.10
2015,04,01,10,52,9.20
2015,04,01,10,53,9.30
2015,04,01,10,54,9.40
2015,04,01,10,55,9.40
2015,04,01,10,56,9.40
2015,04,01,10,57,9.40
2015,04,01,10,58,9.40
2015,04,01,10,59,9.50
2015,04,01,11,00,9.50
2015,04,01,11,01,9.50
2015,04,01,11,02,9.50
2015,04,01,11,03,9.50
2015,04,01,11,04,9.60
2015,04,01,11,05,9.60
2015,04,01,11,06,9.70
2015,04,01,11,07,9.70
2015,04,01,11,08,9.70
2015,04,01,11,09,9.80
2015,04,01,11,10,9.80
2015,04,01,11,11,9.80
2015,04,01,11,12,9.80
2015,04,01,11,13,9.80
2015,04,01,11,14,9.80
2015,04,01,11,15,9.80
2015,04,01,11,16,9.90
2015,04,01,11,17,9.90
2015,04,01,11,18,10.00
2015,04,01,11,19,10.00
2015,04,01,11,20,10.10
2015,04,01,11,21,10.20
2015,04,01,11,22,10.20
2015,04,01,11,23,10.20
2015,04,01,11,24,10.30
2015,04,01,11,25,10.40
2015,04,01,11,26,10.40
2015,04,01,11,27,10.50
2015,04,01,11,28,10.60
2015,04,01,11,29,10.70
2015,04,01,11,30,10.70
2015,04,01,11,31,10.70
2015,04,01,11,32,10.80
2015,04,01,11,33,10.90
2015,04,01,11,34,11.00
2015,04,01,11,35,11.10
2015,04,01,11,36,11.20
2015,04,01,11,37,11.20
2015,04,01,11,38,11.30
2015,04,01,11,39,11.40
2015,04,01,11,40,11.40
2015,04,01,11,41,11.40
2015,04,01,11,42,11.40
2015,04,01,11,43,11.40
2015,04,01,11,44,11.30
2015,04,01,11,45,11.20
2015,04,01,11,46,11.10
2015,04,01,11,47,11.00
2015,04,01,11,48,11.00
2015,04,01,11,49,10.90
2015,04,01,11,50,10.90
2015,04,01,11,51,10.90
2015,04,01,11,52,10.90
2015,04,01,11,53,11.00
2015,04,01,11,54,11.00
2015,04,01,11,55,11.10
2015,04,01,11,56,11.20
2015,04,01,11,57,11.40
2015,04,01,11,58,11.50
2015,04,01,11,59,11.60
2015,04,01,12,00,11.60
2015,04,01,12,01,11.60
2015,04,01,12,02,11.70
2015,04,01,12,03,11.80
2015,04,01,12,04,11.80
2015,04,01,12,05,11.90
2015,04,01,12,06,11.90
2015,04,01,12,07,11.90
2015,04,01,12,08,11.90
2015,04,01,12,09,11.80
2015,04,01,12,10,11.80
2015,04,01,12,11,11.80
2015,04,01,12,12,11.80
2015,04,01,12,13,11.90
2015,04,01,12,14,11.90
2015,04,01,12,15,11.90
2015,04,01,12,16,12.00
2015,04,01,12,17,12.00
2015,04,01,12,18,11.90
2015,04,01,12,19,11.90
2015,04,01,12,20,11.90
2015,04,01,12,21,11.90
2015,04,01,12,22,11.90
2015,04,01,12,23,11.90
2015,04,01,12,24,11.80
2015,04,01,12,25,11.80
2015,04,01,12,26,11.80
2015,04,01,12,27,11.90
2015,04,01,12,28,11.90
2015,04,01,12,29,12.00
2015,04,01,12,30,12.00
2015,04,01,12,31,12.00
2015,04,01,12,32,12.10
2015,04,01,12,33,12.10
2015,04,01,12,34,12.20
2015,04,01,12,35,12.20
2015,04,01,12,36,12.10
2015,04,01,12,37,12.00
2015,04,01,12,38,11.90
2015,04,01,12,39,11.80
2015,04,01,12,40,11.60
2015,04,01,12,41,11.40
2015,04,01,12,42,11.40
2015,04,01,12,43,11.30
2015,04,01,12,44,11.30
2015,04,01,12,45,11.30
2015,04,01,12,46,11.30
2015,04,01,12,47,11.30
2015,04,01,12,48,11.30
2015,04,01,12,49,11.20
2015,04,01,12,50,11.10
2015,04,01,12,51,11.10
2015,04,01,12,52,11.00
2015,04,01,12,53,10.90
2015,04,01,12,54,10.80
2015,04,01,12,55,10.70
2015,04,01,12,56,10.60
2015,04,01,12,57,10.50
2015,04,01,12,58,10.40
2015,04,01,12,59,10.30
2015,04,01,13,00,10.20
2015,04,01,13,01,10.20
2015,04,01,13,02,10.00
2015,04,01,13,03,9.90
2015,04,01,13,04,9.80
2015,04,01,13,05,9.70
2015,04,01,13,06,9.60
2015,04,01,13,07,9.60
2015,04,01,13,08,9.60
2015,04,01,13,09,9.50
2015,04,01,13,10,9.50
2015,04,01,13,11,9.40
2015,04,01,13,12,9.40
2015,04,01,13,13,9.30
2015,04,01,13,14,9.20
2015,04,01,13,15,9.20
2015,04,01,13,16,9.10
2015,04,01,13,17,9.00
2015,04,01,13,18,8.90
2015,04,01,13,19,8.80
2015,04,01,13,20,8.70
2015,04,01,13,21,8.70
2015,04,01,13,22,8.60
2015,04,01,13,23,8.50
2015,04,01,13,24,8.40
2015,04,01,13,25,8.30
2015,04,01,13,26,8.30
2015,04,01,13,27,8.20
2015,04,01,13,28,8.20
2015,04,01,13,29,8.10
2015,04,01,13,30,8.10
2015,04,01,13,31,8.10
2015,04,01,13,32,8.10
2015,04,01,13,33,8.10
2015,04,01,13,34,8.10
2015,04,01,13,35,8.10
2015,04,01,13,36,8.10
2015,04,01,13,37,8.10
2015,04,01,13,38,8.10
2015,04,01,13,39,8.10
2015,04,01,13,40,8.10
2015,04,01,13,41,8.20
2015,04,01,13,42,8.20
2015,04,01,13,43,8.10
2015,04,01,13,44,8.10
2015,04,01,13,45,8.10
2015,04,01,13,46,8.10
2015,04,01,13,47,8.10
2015,04,01,13,48,8.20
2015,04,01,13,49,8.20
2015,04,01,13,50,8.30
2015,04,01,13,51,8.40
2015,04,01,13,52,8.40
2015,04,01,13,53,8.50
2015,04,01,13,54,8.50
2015,04,01,13,55,8.60
2015,04,01,13,56,8.60
2015,04,01,13,57,8.70
2015,04,01,13,58,8.70
2015,04,01,13,59,8.70
2015,04,01,14,00,8.70
2015,04,01,14,01,8.80
2015,04,01,14,02,8.80
2015,04,01,14,03,8.80
2015,04,01,14,04,8.80
2015,04,01,14,05,8.90
2015,04,01,14,06,9.00
2015,04,01,14,07,9.00
2015,04,01,14,08,9.10
2015,04,01,14,09,9.10
2015,04,01,14,10,9.00
2015,04,01,14,11,9.00
2015,04,01,14,12,8.90
2015,04,01,14,13,8.90
2015,04,01,14,14,8.90
2015,04,01,14,15,8.90
2015,04,01,14,16,8.90
2015,04,01,14,17,8.80
2015,04,01,14,18,8.80
2015,04,01,14,19,8.80
2015,04,01,14,20,8.80
2015,04,01,14,21,8.80
2015,04,01,14,22,8.80
2015,04,01,14,23,8.70
2015,04,01,14,24,8.70
2015,04,01,14,25,8.70
2015,04,01,14,26,8.70
2015,04,01,14,27,8.70
2015,04,01,14,28,8.70
2015,04,01,14,29,8.70
2015,04,01,14,30,8.70
2015,04,01,14,31,8.70
2015,04,01,14,32,8.70
2015,04,01,14,33,8.70
2015,04,01,14,34,8.70
2015,04,01,14,35,8.70
2015,04,01,14,36,8.70
2015,04,01,14,37,8.70
2015,04,01,14,38,8.70
2015,04,01,14,39,8.70
2015,04,01,14,40,8.70
2015,04,01,14,41,8.70
2015,04,01,14,42,8.70
2015,04,01,14,43,8.70
2015,04,01,14,44,8.60
2015,04,01,14,45,8.60
2015,04,01,14,46,8.50
2015,04,01,14,47,8.50
2015,04,01,14,48,8.50
2015,04,01,14,49,8.40
2015,04,01,14,50,8.40
2015,04,01,14,51,8.30
2015,04,01,14,52,8.30
2015,04,01,14,53,8.30
2015,04,01,14,54,8.20
2015,04,01,14,55,8.20
2015,04,01,14,56,8.20
2015,04,01,14,57,8.20
2015,04,01,14,58,8.20
2015,04,01,14,59,8.20
2015,04,01,15,00,8.20
2015,04,01,15,01,8.20
2015,04,01,15,02,8.20
2015,04,01,15,03,8.20
2015,04,01,15,04,8.20
2015,04,01,15,05,8.20
2015,04,01,15,06,8.20
2015,04,01,15,07,8.20
2015,04,01,15,08,8.20
2015,04,01,15,09,8.20
2015,04,01,15,10,8.10
2015,04,01,15,11,8.10
2015,04,01,15,12,8.10
2015,04,01,15,13,8.10
2015,04,01,15,14,8.20
2015,04,01,15,15,8.20
2015,04,01,15,16,8.20
2015,04,01,15,17,8.30
2015,04,01,15,18,8.30
2015,04,01,15,19,8.20
2015,04,01,15,20,8.20
2015,04,01,15,21,8.20
2015,04,01,15,22,8.20
2015,04,01,15,23,8.20
2015,04,01,15,24,8.20
2015,04,01,15,25,8.20
2015,04,01,15,26,8.20
2015,04,01,15,27,8.20
2015,04,01,15,28,8.20
2015,04,01,15,29,8.10
2015,04,01,15,30,8.10
2015,04,01,15,31,8.10
2015,04,01,15,32,8.10
2015,04,01,15,33,8.10
2015,04,01,15,34,8.10
2015,04,01,15,35,8.10
2015,04,01,15,36,8.10
2015,04,01,15,37,8.10
2015,04,01,15,38,8.20
2015,04,01,15,39,8.20
2015,04,01,15,40,8.20
2015,04,01,15,41,8.20
2015,04,01,15,42,8.30
2015,04,01,15,43,8.30
2015,04,01,15,44,8.30
2015,04,01,15,45,8.30
2015,04,01,15,46,8.30
2015,04,01,15,47,8.30
2015,04,01,15,48,8.30
2015,04,01,15,49,8.30
2015,04,01,15,50,8.40
2015,04,01,15,51,8.40
2015,04,01,15,52,8.40
2015,04,01,15,53,8.40
2015,04,01,15,54,8.40
2015,04,01,15,55,8.40
2015,04,01,15,56,8.40
2015,04,01,15,57,8.50
2015,04,01,15,58,8.50
2015,04,01,15,59,8.50
2015,04,01,16,00,8.50
2015,04,01,16,01,8.50
2015,04,01,16,02,8.50
2015,04,01,16,03,8.50
2015,04,01,16,04,8.50
2015,04,01,16,05,8.50
2015,04,01,16,06,8.40
2015,04,01,16,07,8.50
2015,04,01,16,08,8.50
2015,04,01,16,09,8.60
2015,04,01,16,10,8.60
2015,04,01,16,11,8.60
2015,04,01,16,12,8.60
2015,04,01,16,13,8.60
2015,04,01,16,14,8.60
2015,04,01,16,15,8.60
2015,04,01,16,16,8.50
2015,04,01,16,17,8.50
2015,04,01,16,18,8.50
2015,04,01,16,19,8.50
2015,04,01,16,20,8.50
2015,04,01,16,21,8.50
2015,04,01,16,22,8.40
2015,04,01,16,23,8.40
2015,04,01,16,24,8.40
2015,04,01,16,25,8.40
2015,04,01,16,26,8.40
2015,04,01,16,27,8.40
2015,04,01,16,28,8.40
2015,04,01,16,29,8.40
2015,04,01,16,30,8.40
2015,04,01,16,31,8.40
2015,04,01,16,32,8.40
2015,04,01,16,33,8.40
2015,04,01,16,34,8.40
2015,04,01,16,35,8.30
2015,04,01,16,36,8.30
2015,04,01,16,37,8.30
2015,04,01,16,38,8.30
2015,04,01,16,39,8.30
2015,04,01,16,40,8.40
2015,04,01,16,41,8.40
2015,04,01,16,42,8.40
2015,04,01,16,43,8.40
2015,04,01,16,44,8.40
2015,04,01,16,45,8.40
2015,04,01,16,46,8.50
2015,04,01,16,47,8.50
2015,04,01,16,48,8.40
2015,04,01,16,49,8.40
2015,04,01,16,50,8.40
2015,04,01,16,51,8.40
2015,04,01,16,52,8.30
2015,04,01,16,53,8.30
2015,04,01,16,54,8.30
2015,04,01,16,55,8.20
2015,04,01,16,56,8.20
2015,04,01,16,57,8.10
2015,04,01,16,58,8.10
2015,04,01,16,59,8.00
2015,04,01,17,00,8.00
2015,04,01,17,01,7.90
2015,04,01,17,02,7.90
2015,04,01,17,03,7.90
2015,04,01,17,04,7.80
2015,04,01,17,05,7.80
2015,04,01,17,06,7.80
2015,04,01,17,07,7.70
2015,04,01,17,08,7.70
2015,04,01,17,09,7.70
2015,04,01,17,10,7.70
2015,04,01,17,11,7.60
2015,04,01,17,12,7.60
2015,04,01,17,13,7.60
2015,04,01,17,14,7.60
2015,04,01,17,15,7.50
2015,04,01,17,16,7.50
2015,04,01,17,17,7.40
2015,04,01,17,18,7.40
2015,04,01,17,19,7.40
2015,04,01,17,20,7.40
2015,04,01,17,21,7.30
2015,04,01,17,22,7.30
2015,04,01,17,23,7.30
2015,04,01,17,24,7.30
2015,04,01,17,25,7.30
2015,04,01,17,26,7.20
2015,04,01,17,27,7.20
2015,04,01,17,28,7.20
2015,04,01,17,29,7.20
2015,04,01,17,30,7.20
2015,04,01,17,31,7.20
2015,04,01,17,32,7.20
2015,04,01,17,33,7.20
2015,04,01,17,34,7.20
2015,04,01,17,35,7.20
2015,04,01,17,36,7.20
2015,04,01,17,37,7.10
2015,04,01,17,38,7.10
2015,04,01,17,39,7.10
2015,04,01,17,40,7.10
2015,04,01,17,41,7.10
2015,04,01,17,42,7.10
2015,04,01,17,43,7.10
2015,04,01,17,44,7.10
2015,04,01,17,45,7.10
2015,04,01,17,46,7.10
2015,04,01,17,47,7.10
2015,04,01,17,48,7.10
2015,04,01,17,49,7.10
2015,04,01,17,50,7.10
2015,04,01,17,51,7.10
2015,04,01,17,52,7.10
2015,04,01,17,53,7.10
2015,04,01,17,54,7.10
2015,04,01,17,55,7.10
2015,04,01,17,56,7.10
2015,04,01,17,57,7.10
2015,04,01,17,58,7.10
2015,04,01,17,59,7.10
2015,04,01,18,00,7.10
2015,04,01,18,01,7.10